Eugene, OR

12:48 PM PST on December 11, 2019 (GMT -0800)
Mahlon Sweet

Weather History for KEUG - August, 2019

Change the Weather History Date:

Friday, August 23, 2019

  Actual Average Record
Temperature  
Mean Temperature 67 °F 66 °F  
Max Temperature 85 °F 82 °F 96 °F (1988)
Min Temperature 49 °F 51 °F 42 °F (1938)
Degree Days  
Heating Degree Days 0 1  
Month to date heating degree days 2 23  
Since 1 June heating degree days 87 216  
Since 1 July heating degree days 12 59  
Cooling Degree Days 2 2  
Month to date cooling degree days 99 76  
Year to date cooling degree days 249 193  
Since 1 June cooling degree days 248 188  
Growing Degree Days 16 (Base 50)    
Moisture  
Dew Point 52 °F    
Average Humidity 61    
Maximum Humidity 93    
Minimum Humidity 29    
Precipitation  
Precipitation 0.00 in 0.03 in 0.86 in (1968)
Month to date precipitation 0.47 0.38  
Year to date precipitation 23.12 25.78  
Sea Level Pressure  
Sea Level Pressure 29.92 in    
Wind  
Wind Speed 6 mph (North)    
Max Wind Speed 14 mph    
Max Gust Speed 21 mph    
Visibility 10 miles    
Events      
T = Trace of Precipitation, MM = Missing Value Source: NWS Daily Summary

Daily Weather History Graph

Daily Weather History Graph

Search for Another Location

Airport or City:

Astronomy

Aug. 23, 2019 Rise Set
Actual Time 6:25 AM PDT 8:04 PM PDT
Civil Twilight 5:54 AM PDT 8:35 PM PDT
Nautical Twilight 5:17 AM PDT 9:12 PM PDT
Astronomical Twilight 4:37 AM PDT 9:51 PM PDT
Moon No Moon Rise 2:24 PM PDT (8/23)
Length of Visible Light 14h 40m
Length of Day
13h 39m
Waning Gibbous, 48% of the Moon is Illuminated
Aug 23
Waning Gibbous
Aug 30
New
Sep 5
First Quarter
Sep 13
Full
Sep 21
Last Quarter

Hourly Weather History & Observations

Time (PDT) Temp. Heat Index Dew Point Humidity Pressure Visibility Wind Dir Wind Speed Gust Speed Precip Events Conditions
12:54 AM 57.9 °F - 50.0 °F 75% 29.97 in 10.0 mi Calm Calm - N/A   Clear
1:54 AM 57.0 °F - 51.1 °F 81% 29.97 in 10.0 mi NNE 4.6 mph - N/A   Clear
2:54 AM 54.0 °F - 50.0 °F 86% 29.96 in 10.0 mi Calm Calm - N/A   Clear
3:54 AM 55.0 °F - 50.0 °F 83% 29.96 in 10.0 mi NNE 8.1 mph - N/A   Clear
4:54 AM 54.0 °F - 50.0 °F 86% 29.96 in 10.0 mi NNE 6.9 mph - N/A   Clear
5:54 AM 53.1 °F - 50.0 °F 89% 29.97 in 10.0 mi North 4.6 mph - N/A   Partly Cloudy
6:54 AM 50.0 °F - 48.0 °F 93% 29.97 in 10.0 mi Calm Calm - N/A   Scattered Clouds
7:54 AM 55.9 °F - 52.0 °F 87% 29.98 in 10.0 mi Calm Calm - N/A   Scattered Clouds
8:54 AM 60.1 °F - 54.0 °F 80% 29.98 in 10.0 mi Calm Calm - N/A   Scattered Clouds
9:54 AM 66.0 °F - 54.0 °F 65% 29.97 in 10.0 mi NNW 11.5 mph - N/A   Scattered Clouds
10:54 AM 68.0 °F - 55.0 °F 63% 29.96 in 10.0 mi North 8.1 mph - N/A   Scattered Clouds
11:54 AM 72.0 °F - 54.0 °F 53% 29.94 in 10.0 mi NNW 10.4 mph - N/A   Scattered Clouds
12:54 PM 75.0 °F - 53.1 °F 46% 29.92 in 10.0 mi North 8.1 mph - N/A   Scattered Clouds
1:54 PM 80.1 °F 80.0 °F 54.0 °F 40% 29.91 in 10.0 mi NNE 13.8 mph - N/A   Scattered Clouds
3:54 PM 84.9 °F - 48.0 °F 28% 29.87 in 10.0 mi NNE 11.5 mph - N/A   Mostly Cloudy
4:54 PM 84.9 °F - 50.0 °F 30% 29.86 in 10.0 mi NNE 8.1 mph - N/A   Mostly Cloudy
5:54 PM 84.9 °F - 48.9 °F 29% 29.86 in 10.0 mi NNE 9.2 mph - N/A   Mostly Cloudy
6:54 PM 84.0 °F - 50.0 °F 31% 29.85 in 10.0 mi NNE 5.8 mph - N/A   Scattered Clouds
7:54 PM 79.0 °F - 52.0 °F 39% 29.85 in 10.0 mi NNW 4.6 mph - N/A   Scattered Clouds
8:54 PM 72.0 °F - 54.0 °F 53% 29.86 in 10.0 mi North 4.6 mph - N/A   Mostly Cloudy
9:54 PM 66.9 °F - 55.0 °F 66% 29.89 in 10.0 mi NE 4.6 mph - N/A   Scattered Clouds
10:54 PM 68.0 °F - 53.1 °F 59% 29.90 in 10.0 mi Calm Calm - N/A   Partly Cloudy
11:54 PM 64.9 °F - 52.0 °F 63% 29.91 in 10.0 mi Calm Calm - N/A   Clear